Flag for Germany Weather past 2 weeks in Neustadt am Rübenberge, Lower Saxony, Germany

Now
64 °F

Partly sunny.


Feels Like: 64 °F
Forecast: 52 / 64 °F
Wind: 12 mph from Southwest

Location: Wunstorf Airport

Current Time: Aug 21, 2014 at 4:17:53 PM

Latest Report: Aug 21, 2014 at 3:20 PM


Visibility: N/A

Pressure: 29.98 "Hg

Humidity: 49%

Dew point: 45 °F

Location of Neustadt am RübenbergeLocation

Historic Weather in Neustadt am Rübenberge — Graph

°F

Neustadt am Rübenberge temperature yesterday

Maximum temperature yesterday: 63 °F (at 1:20 PM)
Minimum temperature yesterday: 48 °F (at 5:20 AM)
Average temperature yesterday: 55 °F

Past Weeks' High & Low Weather Summary

 TemperatureHumidityPressure
High79 °F (Aug 8, 4:20 PM)100% (Aug 7, 6:20 AM)30.04 "Hg (Aug 7, 6:20 AM)
Low48 °F (Aug 20, 5:20 AM)38% (Aug 11, 5:20 PM)29.59 "Hg (Aug 10, 7:20 PM)
Average62 °F75%29.83 "Hg
* Reported Aug 6 2:20 PM — Aug 21 2:20 PM, Neustadt am Rübenberge, Weather by CustomWeather, © 2014

Note: Actual official high and low records may vary slightly from our data, if they occured in-between our weather recording intervals... More about our weather records

Advertising

Neustadt am Rübenberge weather history for previous 24 hours

 ConditionsComfort  
Time TempWeatherWind HumidityBarometerVisibility
2:20 PM
Aug 21
63 °FScattered clouds.10 mph52%30.01 "HgN/A
1:20 PM63 °FPassing clouds.10 mph56%30.01 "HgN/A
12:20 PM61 °FPassing clouds.10 mph59%30.01 "HgN/A
11:20 AM59 °FPassing clouds.10 mph63%30.01 "HgN/A
10:20 AM57 °FScattered clouds.8 mph72%30.01 "HgN/A
9:20 AM54 °FScattered clouds.8 mph82%30.01 "Hg5 mi
8:20 AM52 °FScattered clouds.6 mph88%30.01 "Hg4 mi
7:20 AM50 °FFog.6 mph94%30.01 "Hg3 mi
6:20 AM50 °FCool.7 mph94%29.98 "Hg3 mi
5:20 AM50 °FCool.5 mph88%29.98 "Hg3 mi
4:20 AM52 °FCool.8 mph88%29.98 "Hg4 mi
3:20 AM52 °FCool.6 mph88%29.98 "Hg4 mi
2:20 AM52 °FCool.6 mph88%29.98 "Hg4 mi
1:20 AM54 °FCool.6 mph82%29.98 "Hg4 mi
12:20 AM52 °FCool.6 mph88%29.98 "Hg4 mi
11:20 PM
Aug 20
54 °FCool.5 mph82%29.98 "Hg4 mi
10:20 PM54 °FCool.6 mph82%29.98 "Hg4 mi
9:20 PM52 °FCool.7 mph88%29.98 "Hg4 mi
8:20 PM57 °FCool.6 mph77%29.98 "Hg5 mi
7:20 PM59 °FPartly sunny.5 mph72%29.98 "HgN/A
6:20 PM59 °FPartly sunny.7 mph68%29.98 "HgN/A
5:20 PM57 °FScattered clouds.8 mph77%29.98 "HgN/A
4:20 PM61 °FScattered clouds.21 mph55%29.98 "HgN/A
Weather by CustomWeather, © 2014

See weather overviewHow to use our weather pages